N67F KHSV-

Flight info

Callsign N67F
Flight time N/A
Altitude
Route PATTERN
Aircraft BT36/L-DOV/C

Departure

Time 2026-05-05 16:03
Airport Huntsville International Airport (KHSV)

Arrival

Time N/A
Airport -
Time Latitude Longitude Altitude Speed Heading
2026-05-05 15:58 34.64244 -86.76259 629 ft 0 kts 88°
2026-05-05 15:59 34.64259 -86.76249 637 ft 4 kts 329°
2026-05-05 15:59 34.64261 -86.76252 636 ft 0 kts 303°
2026-05-05 16:00 34.64262 -86.76253 629 ft 0 kts 299°
2026-05-05 16:00 34.64317 -86.76284 634 ft 40 kts 344°
2026-05-05 16:00 34.64563 -86.76346 634 ft 36 kts 327°
2026-05-05 16:00 34.64854 -86.76475 643 ft 42 kts 10°
2026-05-05 16:01 34.65100 -86.76375 639 ft 34 kts 10°
2026-05-05 16:01 34.65293 -86.76417 639 ft 16 kts 295°
2026-05-05 16:01 34.65277 -86.76536 640 ft 13 kts 221°
2026-05-05 16:01 34.65226 -86.76549 641 ft 0 kts 179°
2026-05-05 16:02 34.65224 -86.76549 641 ft 7 kts 181°
2026-05-05 16:02 34.64865 -86.76554 668 ft 86 kts 184°
2026-05-05 16:02 34.64186 -86.76556 943 ft 101 kts 182°
2026-05-05 16:02 34.63471 -86.76523 1213 ft 111 kts 179°
2026-05-05 16:03 34.62662 -86.76468 1369 ft 120 kts 181°
2026-05-05 16:03 34.61935 -86.76115 1720 ft 127 kts 106°
2026-05-05 16:03 34.62613 -86.75579 1702 ft 143 kts
2026-05-05 16:03 34.63645 -86.75512 1654 ft 152 kts
2026-05-05 16:04 34.64662 -86.75420 1433 ft 141 kts
2026-05-05 16:04 34.65609 -86.75466 1371 ft 145 kts 351°
2026-05-05 16:04 34.66622 -86.75603 1408 ft 144 kts 349°
2026-05-05 16:04 34.67631 -86.75842 1393 ft 147 kts 342°
2026-05-05 16:05 34.68358 -86.76473 1556 ft 120 kts 275°
2026-05-05 16:05 34.68081 -86.77331 1471 ft 121 kts 221°
2026-05-05 16:05 34.67465 -86.77857 1233 ft 97 kts 201°
2026-05-05 16:05 34.66861 -86.78050 1044 ft 90 kts 195°
2026-05-05 16:06 34.66252 -86.78187 787 ft 81 kts 186°
2026-05-05 16:06 34.65698 -86.78201 712 ft 80 kts 183°
2026-05-05 16:06 34.65134 -86.78212 635 ft 78 kts 184°
2026-05-05 16:06 34.64671 -86.78221 679 ft 67 kts 185°
2026-05-05 16:07 34.64061 -86.78232 781 ft 111 kts 185°
2026-05-05 16:07 34.63264 -86.78255 1140 ft 113 kts 184°
2026-05-05 16:07 34.63153 -86.78739 753 ft 176 kts 341°
2026-05-05 16:07 34.64307 -86.78859 1002 ft 145 kts 352°
2026-05-05 16:08 34.65216 -86.78979 1140 ft 130 kts 353°
2026-05-05 16:08 34.65689 -86.78559 1057 ft 100 kts 111°
2026-05-05 16:08 34.65236 -86.78206 634 ft 69 kts 189°
2026-05-05 16:08 34.64881 -86.78213 672 ft 42 kts 178°
2026-05-05 16:09 34.64686 -86.78200 627 ft 2 kts 256°
2026-05-05 16:09 34.64422 -86.78225 623 ft 73 kts 182°
2026-05-05 16:09 34.63838 -86.78206 770 ft 94 kts 180°
2026-05-05 16:09 34.63075 -86.78228 983 ft 119 kts 188°
2026-05-05 16:10 34.62205 -86.78252 1319 ft 129 kts 185°
2026-05-05 16:10 34.62058 -86.78954 1744 ft 122 kts 350°
2026-05-05 16:10 34.63124 -86.79036 1547 ft 172 kts 355°
2026-05-05 16:10 34.64381 -86.79066 1470 ft 174 kts 358°
2026-05-05 16:11 34.65463 -86.79160 1509 ft 154 kts 357°
2026-05-05 16:11 34.66089 -86.76702 978 ft 101 kts 164°
2026-05-05 16:12 34.65491 -86.76543 683 ft 77 kts 179°
2026-05-05 16:12 34.64837 -86.76632 642 ft 17 kts 271°
2026-05-05 16:13 34.64831 -86.76671 640 ft 0 kts 265°
2026-05-05 16:13 34.64834 -86.76681 640 ft 11 kts 302°
2026-05-05 16:13 34.64970 -86.76732 641 ft 20 kts 287°